Weather History for KLWV - January, 2013

Change the Weather History Date:

Monday, January 21, 2013

  Actual Average Record
Temperature  
Mean Temperature 20 °F 31 °F  
Max Temperature 26 °F 39 °F 61 °F (1999)
Min Temperature 13 °F 23 °F -7 °F (2011)
Degree Days  
Heating Degree Days 45 34  
Month to date heating degree days 712 714  
Since 1 July heating degree days 2534 2513  
Cooling Degree Days 0 0  
Month to date cooling degree days 0 0  
Year to date cooling degree days 0 0  
Moisture  
Dew Point 7 °F    
Average Humidity 56    
Maximum Humidity 74    
Minimum Humidity 38    
Precipitation  
Precipitation 0.00 in 0.04 in 1.22 in (1993)
Month to date precipitation 4.36 1.78  
Year to date precipitation 4.36 1.78  
Sea Level Pressure  
Sea Level Pressure 30.30 in    
Wind  
Wind Speed 16 mph (WNW)    
Max Wind Speed 28 mph    
Max Gust Speed 35 mph    
Visibility 10 miles    
Events      
T = Trace of Precipitation, MM = Missing Value Source: NWS Daily Summary

Daily Weather History Graph

Daily Weather History Graph

Search for Another Location

Airport or City:

Trip Planner

Search our weather history database for the weather conditions in past years. The results will help you decide how hot, cold, wet, or windy it might be!

Date:

Astronomy

Jan. 21, 2013 Rise Set
Actual Time 7:04 AM CST 4:59 PM CST
Civil Twilight 6:35 AM CST 5:28 PM CST
Nautical Twilight 6:03 AM CST 6:01 PM CST
Astronomical Twilight 5:31 AM CST 6:32 PM CST
Moon 12:39 PM CST (1/21) 2:32 AM CST (1/21)
Length of Visible Light 10h 53m
Length of Day
9h 55m
Waxing Gibbous, 75% of the Moon is Illuminated
Jan 21
Waxing Gibbous
Jan 26
Full
Feb 3
Last Quarter
Feb 10
New
Feb 17
First Quarter

Hourly Weather History & Observations

Time (CST) Temp. Windchill Dew Point Humidity Pressure Visibility Wind Dir Wind Speed Gust Speed Precip Events Conditions
12:53 AM 26.1 °F 18.4 °F 17.1 °F 69% 30.24 in 10.0 mi NW 6.9 mph - N/A   Overcast
1:53 AM 25.0 °F 14.8 °F 17.1 °F 72% 30.25 in 10.0 mi NW 10.4 mph - N/A   Overcast
2:11 AM 24.8 °F 12.4 °F 17.6 °F 74% 30.24 in 10.0 mi NW 15.0 mph - N/A   Overcast
2:53 AM 24.1 °F 12.0 °F 16.0 °F 71% 30.26 in 10.0 mi WNW 13.8 mph - N/A   Mostly Cloudy
3:53 AM 23.0 °F 10.6 °F 15.1 °F 72% 30.26 in 10.0 mi WNW 13.8 mph - N/A   Overcast
4:38 AM 21.2 °F 8.3 °F 12.2 °F 68% 30.24 in 10.0 mi NW 13.8 mph - N/A   Scattered Clouds
4:53 AM 21.9 °F 9.2 °F 12.9 °F 68% 30.27 in 10.0 mi NW 13.8 mph - N/A   Scattered Clouds
5:04 AM 21.2 °F 9.5 °F 12.2 °F 68% 30.24 in 10.0 mi WNW 11.5 mph - N/A   Mostly Cloudy
5:19 AM 21.2 °F 9.5 °F 12.2 °F 68% 30.24 in 10.0 mi WNW 11.5 mph - N/A   Scattered Clouds
5:36 AM 21.2 °F 6.4 °F 14.0 °F 74% 30.25 in 10.0 mi WNW 18.4 mph 21.9 mph N/A   Mostly Cloudy
5:53 AM 21.0 °F 5.7 °F 12.0 °F 68% 30.27 in 10.0 mi WNW 19.6 mph - N/A   Mostly Cloudy
6:53 AM 21.0 °F 7.1 °F 12.9 °F 71% 30.28 in 10.0 mi WNW 16.1 mph - N/A   Scattered Clouds
7:53 AM 19.9 °F 5.2 °F 10.0 °F 65% 30.28 in 10.0 mi WNW 17.3 mph - N/A   Partly Cloudy
8:53 AM 19.9 °F 4.3 °F 6.1 °F 55% 30.30 in 10.0 mi WNW 19.6 mph 27.6 mph N/A   Mostly Cloudy
9:53 AM 21.9 °F 6.2 °F 5.0 °F 48% 30.31 in 10.0 mi West 21.9 mph 28.8 mph N/A   Partly Cloudy
10:53 AM 21.9 °F 7.8 °F 8.1 °F 55% 30.31 in 10.0 mi WNW 17.3 mph - N/A   Mostly Cloudy
11:53 AM 21.9 °F 8.7 °F 5.0 °F 48% 30.30 in 10.0 mi WNW 15.0 mph 24.2 mph N/A   Mostly Cloudy
12:53 PM 23.0 °F 8.0 °F -0.0 °F 37% 30.30 in 10.0 mi WNW 20.7 mph 32.2 mph N/A   Clear
1:53 PM 21.9 °F 6.9 °F 1.0 °F 40% 30.30 in 10.0 mi WNW 19.6 mph 28.8 mph N/A   Clear
2:53 PM 21.9 °F 8.2 °F 1.0 °F 40% 30.32 in 10.0 mi WNW 16.1 mph 28.8 mph N/A   Partly Cloudy
3:53 PM 19.9 °F 5.2 °F -0.0 °F 42% 30.33 in 10.0 mi WNW 17.3 mph - N/A   Partly Cloudy
4:53 PM 19.0 °F 4.0 °F -0.0 °F 43% 30.33 in 10.0 mi NW 17.3 mph - N/A   Clear
5:53 PM 18.0 °F 4.2 °F -0.9 °F 44% 30.35 in 10.0 mi WNW 13.8 mph - N/A   Clear
6:53 PM 17.1 °F 4.3 °F 1.0 °F 50% 30.36 in 10.0 mi WNW 11.5 mph - N/A   Clear
7:53 PM 17.1 °F 2.5 °F -0.0 °F 47% 30.36 in 10.0 mi WNW 15.0 mph - N/A   Clear
8:53 PM 16.0 °F 0.6 °F -0.0 °F 49% 30.38 in 10.0 mi WNW 16.1 mph - N/A   Clear
9:53 PM 15.1 °F -0.1 °F -2.9 °F 45% 30.38 in 10.0 mi WNW 15.0 mph - N/A   Clear
10:53 PM 14.0 °F -0.8 °F -2.9 °F 47% 30.39 in 10.0 mi WNW 13.8 mph - N/A   Clear
11:53 PM 14.0 °F -2.0 °F -4.0 °F 45% 30.38 in 10.0 mi NW 16.1 mph - N/A   Clear